Wind_Speed
48 48 48 47 46 44 42 40 37 35 33 31 27 23 20 18 14 19 14 12 7 3 3 5 3 5 4 3 4 4 3 3 3 3 3 3 3 4 3 3 4 4 2 3 1 2 6 4 4 3 4 15 14 16
44 44 43 43 42 40 38 35 32 31 31 29 26 23 20 17 17 23 10 17 17 6 3 3 7 9 6 7 5 2 4 3 4 3 1 2 2 0 4 3 2 3 6 3 6 5 4 3 11 15 11 14 16 14
40 40 40 40 38 37 34 32 30 29 27 25 23 21 21 21 20 23 19 11 10 3 4 4 5 8 5 7 7 4 2 4 3 3 3 2 2 3 2 4 3 3 3 4 4 9 9 10 13 12 14 14 11 14
36 36 36 35 34 33 31 31 29 28 26 24 22 20 19 20 19 19 19 14 10 3 4 2 5 5 4 7 9 3 7 5 6 3 2 2 2 4 3 4 4 5 2 4 10 13 12 11 10 9 10 17 16 15
34 33 33 33 31 30 30 29 27 26 23 22 20 19 18 18 19 23 24 19 14 5 4 2 4 5 5 7 10 9 10 4 2 2 2 2 2 2 2 1 4 5 6 4 7 7 7 13 12 18 16 15 15 18
29 29 29 28 28 27 26 25 23 22 21 20 19 18 17 15 8 6 4 14 14 8 4 2 4 4 6 2 11 9 8 3 1 3 3 2 3 4 2 3 5 6 4 5 9 4 7 12 15 13 15 17 18 18
28 28 27 27 26 24 23 21 19 18 18 17 16 16 15 13 14 7 4 4 9 9 3 3 3 3 4 3 2 2 4 2 3 3 2 4 3 5 2 7 2 6 7 5 6 6 7 5 9 14 15 16 22 21
26 25 23 23 22 20 18 17 17 16 14 14 14 16 17 15 12 11 12 9 7 7 3 3 2 3 4 2 1 0 2 2 1 3 1 3 1 3 5 6 5 3 5 6 4 5 7 11 11 12 15 16 17 16
23 23 21 19 19 19 18 15 14 12 12 14 15 12 6 6 4 4 7 5 7 4 3 2 3 3 3 1 0 3 1 1 1 2 3 4 3 5 7 5 5 3 3 5 7 6 7 9 12 15 16 17 16 16
19 18 17 17 18 17 15 13 13 15 15 9 3 5 3 4 10 7 2 3 4 3 3 1 1 2 3 1 2 2 1 2 1 3 3 3 3 9 7 5 4 2 3 3 3 10 11 12 13 16 17 15 14 15
17 17 17 17 16 14 13 12 11 12 4 3 3 2 5 5 1 3 2 3 1 1 2 3 4 2 1 2 2 2 2 2 2 3 3 3 3 3 4 6 4 3 2 0 2 4 5 6 10 13 15 15 15 16
16 16 15 14 14 12 12 11 7 4 4 4 7 6 3 3 3 4 1 2 1 2 2 3 3 4 1 2 2 2 2 1 3 4 3 2 3 4 5 5 5 3 3 1 2 5 7 7 10 10 11 13 16 21
14 14 13 12 11 10 9 10 9 7 6 4 3 3 3 2 6 4 2 3 2 1 2 1 1 3 1 2 1 1 1 3 2 3 3 2 1 4 5 3 3 3 2 4 5 7 10 10 15 13 11 20 20 19
13 12 10 9 8 8 7 5 4 4 2 3 3 1 3 2 3 3 3 2 1 2 2 2 1 3 2 2 2 3 4 1 2 2 4 2 2 4 4 3 2 2 3 5 6 7 7 7 10 17 18 20 18 16
11 10 8 7 7 8 8 3 3 2 2 1 2 2 4 3 2 3 2 1 3 2 1 2 2 2 2 2 3 1 1 3 4 3 2 3 4 4 7 5 5 5 5 4 3 4 6 12 10 12 19 21 20 19
9 7 6 7 8 6 5 6 3 1 1 1 3 0 2 2 3 2 1 2 2 1 1 2 1 1 3 3 3 6 4 6 4 3 3 3 6 7 6 6 7 5 5 5 9 10 12 12 10 13 17 17 19 20
7 2 7 10 8 8 8 2 1 2 1 2 3 1 3 2 4 3 3 3 2 2 1 1 2 8 0 2 3 4 4 3 3 3 2 5 7 9 7 6 5 7 6 8 11 13 11 14 13 11 6 16 14 16
2 1 11 12 13 10 2 1 1 2 4 4 2 3 3 3 3 2 3 3 3 3 2 3 2 3 4 4 4 3 3 3 3 3 4 8 10 9 7 7 8 10 9 11 13 14 12 13 6 6 13 12 11 14
5 4 12 15 13 5 1 2 2 3 6 2 3 2 2 3 3 2 3 3 4 3 2 1 4 3 4 2 2 2 3 3 4 5 6 8 10 7 8 10 9 9 11 9 8 9 13 13 12 13 11 10 9 13
4 5 12 16 7 3 2 2 4 3 3 3 1 2 3 3 3 2 4 3 4 3 3 4 5 3 3 3 3 3 2 4 3 4 4 2 2 2 4 6 6 11 11 12 13 12 9 8 8 9 6 8 11 13
5 6 16 13 3 3 2 2 3 3 3 2 2 2 3 1 2 2 3 4 3 3 4 5 3 4 1 2 5 4 7 7 6 4 3 4 4 5 6 9 11 11 7 6 3 6 4 6 8 7 11 15 19 22
5 16 4 8 2 2 3 5 3 2 1 2 2 2 2 2 3 3 2 2 3 3 3 2 1 2 3 6 3 7 3 2 3 4 6 5 2 3 4 6 6 3 4 6 6 3 4 8 12 16 19 21 23 22
15 11 4 4 3 2 5 3 3 3 1 3 1 1 3 2 3 2 1 3 2 1 1 2 6 10 6 6 4 4 3 5 3 3 5 5 5 8 7 6 5 3 2 5 8 8 9 14 15 17 19 21 22 24
6 3 4 4 5 4 1 2 2 2 1 1 2 3 3 3 1 0 3 3 2 2 2 5 4 2 1 3 2 2 2 3 4 3 4 4 1 3 8 8 7 6 6 6 8 11 13 15 17 19 20 21 21 17
4 6 4 5 3 3 4 2 2 2 4 4 2 3 3 2 2 3 4 3 5 5 3 2 1 2 2 2 0 4 3 3 0 2 1 4 3 3 6 7 5 4 7 11 15 16 18 18 18 17 18 17 17 19
7 8 10 9 4 6 6 4 5 7 4 3 6 3 1 2 1 6 3 3 3 4 4 5 4 2 3 2 2 1 1 1 2 0 2 4 4 1 2 2 2 9 11 17 20 21 21 22 20 20 19 20 19 20
7 7 4 3 3 3 1 1 2 3 5 6 3 1 2 3 6 4 1 2 3 6 13 14 11 5 2 4 6 5 3 2 1 3 6 8 7 1 7 4 2 14 21 24 26 25 23 20 20 20 21 22 20 21
5 6 9 7 4 3 5 3 5 7 5 3 3 3 5 7 5 3 4 9 11 10 9 9 8 7 6 6 5 7 4 0 4 5 9 4 8 11 13 11 17 23 28 24 22 24 25 24 25 24 22 23 25 23
5 4 6 6 3 4 6 7 6 5 3 4 5 4 4 3 3 3 6 13 10 12 9 9 7 9 8 9 8 6 3 1 3 3 4 5 4 10 10 17 25 25 24 26 27 25 25 25 25 26 26 26 28 27
4 6 5 6 6 8 6 6 4 3 3 3 2 1 2 2 3 7 10 13 11 10 17 18 14 15 10 9 6 6 7 6 7 5 3 5 8 23 27 27 27 28 28 28 26 27 27 25 25 25 24 23 22 22
5 6 3 4 5 3 3 2 1 2 2 1 1 3 3 2 3 5 12 15 16 11 11 9 11 15 11 9 7 2 4 6 6 7 10 16 21 22 24 25 27 28 28 26 24 25 26 26 24 24 23 24 25 24
4 8 6 4 3 2 2 2 1 1 3 1 2 1 3 3 2 3 2 11 12 9 16 16 12 10 14 11 7 6 7 7 8 12 14 16 20 22 22 27 29 24 26 28 25 24 25 26 25 24 24 25 25 24
3 2 2 3 2 2 1 3 3 3 2 2 2 1 3 4 5 3 4 12 15 18 18 15 11 8 5 5 5 4 4 8 11 14 16 18 20 19 25 29 28 26 26 26 24 24 25 25 24 24 24 25 26 26
Wind_Direction
102 105 108 110 114 119 120 121 124 120 111 108 106 108 110 109 120 117 60 66 101 88 21 28 99 113 84 90 127 175 83 2 55 86 123 204 175 213 206 220 174 172 169 226 124 79 292 204 334 232 271 304 295 293
107 108 110 113 115 117 117 117 119 119 109 106 104 97 96 99 101 101 70 69 85 80 140 55 73 70 99 151 124 38 149 141 163 93 98 113 191 182 172 243 209 265 188 218 174 225 254 279 278 286 275 277 286 281
110 111 112 114 115 115 114 112 111 113 111 106 99 90 82 82 88 91 75 60 73 75 18 55 56 44 115 129 139 117 326 157 141 154 156 164 187 149 183 241 217 262 195 235 325 264 268 280 285 278 281 280 289 291
109 110 111 111 112 111 109 109 107 106 103 101 98 94 86 82 81 86 69 51 74 104 106 278 27 96 78 170 189 155 131 89 99 72 109 135 164 172 223 242 210 194 166 253 268 283 286 269 275 277 300 301 292 291
108 110 113 113 111 109 108 108 108 106 104 100 97 95 95 90 89 85 73 57 51 123 154 192 314 28 359 172 169 178 133 116 107 71 94 204 200 141 233 259 244 178 223 189 252 264 266 295 313 294 291 293 301 299
111 112 111 110 111 111 110 109 108 106 103 101 100 100 103 109 100 74 51 43 40 52 85 68 301 318 356 234 166 155 154 112 104 146 204 236 238 130 156 245 232 206 220 227 280 301 288 283 284 300 311 306 304 299
116 116 116 116 115 113 111 107 103 101 101 100 96 92 84 73 77 67 119 81 53 39 68 36 354 311 313 84 60 97 132 162 151 182 198 174 203 165 202 251 161 263 285 297 308 303 289 278 305 315 311 308 306 298
114 113 114 115 113 110 108 109 109 106 102 98 97 99 98 87 79 66 80 77 53 79 67 98 263 1 9 26 7 81 114 51 311 190 75 160 88 190 251 236 246 208 284 277 258 297 271 289 305 313 318 317 313 317
120 120 118 119 118 116 115 113 111 110 111 113 113 107 79 49 54 88 103 76 50 83 121 99 130 217 346 8 239 13 91 77 164 201 204 133 175 220 231 222 225 206 215 272 293 288 306 324 323 324 321 323 319 318
122 121 122 126 124 121 119 117 116 117 120 108 59 47 28 45 114 119 67 32 18 348 46 143 121 246 109 30 315 74 34 216 212 231 110 199 247 245 233 211 181 164 267 306 344 335 338 334 327 321 318 321 320 320
127 130 131 128 125 125 121 120 123 127 100 51 52 95 125 130 102 33 39 87 316 15 181 224 185 204 283 123 199 197 212 233 220 208 186 215 247 218 131 141 145 206 240 120 251 277 295 294 307 315 317 320 328 329
132 133 134 133 134 132 126 126 113 78 68 85 112 107 107 45 49 76 313 330 209 228 191 170 223 191 267 155 190 209 212 151 244 146 217 236 250 160 159 178 186 167 183 285 327 305 293 288 290 298 304 309 315 328
138 138 137 138 139 137 136 139 85 71 118 111 65 60 71 331 40 112 219 291 338 266 209 174 277 154 200 185 279 148 185 228 123 222 219 214 253 179 181 182 180 168 34 338 309 302 298 296 308 300 304 315 314 323
141 139 138 139 142 145 148 150 172 43 61 73 100 359 140 277 244 194 175 159 225 242 243 171 236 179 190 186 185 184 231 288 293 223 230 203 229 227 195 198 193 278 287 270 283 292 293 299 302 309 309 315 320 325
147 144 141 136 142 150 155 137 157 56 81 101 102 242 218 231 244 224 224 233 239 205 169 27 15 141 208 243 206 196 258 238 204 228 222 211 227 245 226 215 213 229 245 266 256 261 280 296 292 298 328 334 334 330
153 157 173 158 153 153 152 134 119 80 49 126 203 94 253 63 292 331 203 238 246 196 73 89 157 46 262 202 222 214 165 217 227 211 223 205 227 239 234 219 223 229 230 243 267 272 281 288 282 300 317 333 339 342
180 196 184 173 164 149 144 117 127 50 235 251 256 193 166 161 200 215 175 221 171 91 231 133 133 218 89 241 231 189 208 207 202 233 226 224 233 238 232 229 223 233 243 257 271 279 274 296 293 302 306 327 337 344
186 230 173 166 157 142 156 93 64 246 249 237 218 234 200 199 184 240 217 187 130 172 148 229 170 220 216 216 243 236 226 240 224 204 224 244 242 246 232 231 233 241 246 263 275 277 281 294 285 282 304 322 324 333
136 119 171 172 161 135 160 189 219 258 234 229 243 218 201 236 234 217 191 195 194 193 152 193 238 221 229 243 241 262 243 206 229 230 228 234 237 231 222 229 242 256 264 266 270 270 277 294 290 300 311 323 317 333
200 189 187 183 171 125 213 212 206 247 261 240 263 255 204 210 213 197 208 175 165 169 203 221 217 216 199 235 210 232 252 260 223 263 271 285 306 330 328 293 274 281 279 287 295 299 300 302 318 339 329 328 332 327
184 169 166 168 151 196 225 235 228 223 247 234 241 177 249 307 240 211 221 158 164 209 223 223 221 240 305 351 25 43 38 39 46 47 15 19 3 4 346 331 319 318 295 281 274 297 332 309 326 337 343 335 331 327
178 172 130 176 175 216 250 227 223 266 226 244 304 217 265 289 271 240 152 123 216 228 206 213 229 122 103 90 92 82 71 17 308 249 234 227 255 264 271 291 299 318 356 340 325 303 357 16 351 338 334 329 328 325
166 175 167 163 179 224 252 173 205 218 233 264 9 262 270 251 234 136 240 212 217 142 56 67 78 82 90 100 14 315 294 305 286 288 313 332 359 34 17 359 352 324 304 30 26 11 358 347 342 336 333 330 328 324
155 183 195 201 183 232 193 224 215 223 301 252 204 261 250 227 202 193 234 221 170 131 138 138 135 123 195 245 212 215 47 60 48 42 32 6 332 338 355 350 4 82 52 10 358 348 340 335 336 333 329 322 316 306
198 211 202 220 225 170 177 235 243 181 230 215 199 273 260 140 193 249 226 228 170 171 170 187 210 199 213 236 205 147 61 39 285 274 88 56 13 360 358 359 359 313 309 335 336 325 315 316 318 315 316 311 301 300
208 208 191 188 196 175 189 185 202 207 184 213 226 245 41 117 189 249 232 185 166 162 182 190 199 213 237 210 169 203 245 335 330 103 276 4 355 254 249 294 304 328 341 318 307 302 301 299 300 303 303 306 302 298
209 202 187 191 173 159 147 260 186 149 183 206 230 240 115 231 239 249 207 222 166 188 196 216 216 209 198 183 182 179 167 132 80 299 309 302 291 259 339 303 261 315 322 319 314 302 293 290 297 296 295 296 294 290
207 178 177 178 200 180 175 178 174 194 214 209 113 172 201 204 236 214 200 190 169 170 208 217 206 192 181 196 191 177 170 91 341 333 329 327 298 299 309 291 309 314 314 312 309 307 302 296 293 292 289 288 292 292
195 174 142 172 168 183 201 189 204 209 193 160 175 220 236 221 202 163 175 169 188 198 174 178 180 178 175 171 179 187 196 269 53 345 307 291 308 314 320 315 318 321 319 314 311 305 298 294 289 289 290 293 293 291
200 169 169 172 184 210 208 187 204 223 193 187 167 19 343 292 230 203 176 174 177 196 207 205 194 185 185 186 206 224 225 259 290 262 234 280 293 317 320 321 321 320 320 315 305 302 302 295 292 290 288 287 286 285
148 166 138 170 216 228 216 174 57 86 54 168 359 176 231 298 308 227 220 212 204 199 175 179 196 203 196 193 197 174 282 301 295 292 298 304 306 311 316 320 322 321 316 307 300 300 298 296 293 290 287 284 283 281
164 175 162 183 246 272 36 78 95 93 358 309 279 22 13 39 294 288 226 197 178 178 199 202 194 215 222 239 244 259 285 296 304 312 318 318 318 319 320 323 322 310 306 304 300 297 296 293 293 294 295 295 295 295
92 93 92 105 105 128 330 99 47 342 6 342 276 215 217 176 217 253 208 208 218 216 214 216 223 219 205 230 241 254 282 314 323 323 323 322 319 317 321 322 321 319 314 307 303 302 299 298 297 297 297 296 295 294
Height
611 617 623 629 636 644 649 654 661 668 674 678 682 686 688 690 691 691 700 697 698 717 727 726 727 733 741 746 753 759 764 766 774 785 796 792 789 781 781 775 779 798 808 811 805 839 801 753 750 756 751 744 743 740
627 632 636 642 648 654 659 665 671 676 681 685 688 691 693 695 697 696 701 702 704 714 730 731 731 733 735 739 751 760 760 763 769 782 791 795 785 791 780 791 771 798 785 784 781 771 753 751 751 747 746 743 738 735
643 647 651 656 661 666 670 675 679 684 688 691 694 696 698 699 701 699 703 706 709 723 733 734 737 737 738 741 746 762 764 762 764 766 782 788 783 784 794 786 774 771 769 779 768 751 752 750 745 743 740 736 732 728
655 658 663 667 671 675 678 683 687 690 694 697 700 702 704 705 707 706 708 713 716 730 746 745 739 741 743 744 746 749 753 758 762 768 785 787 782 778 782 773 775 771 767 765 760 752 749 744 742 740 736 732 727 721
666 670 675 678 681 683 687 691 695 698 702 705 706 707 710 711 713 715 718 722 724 728 745 745 740 740 741 742 745 749 753 759 769 779 789 786 781 781 779 777 769 764 760 770 760 751 750 743 741 737 732 727 722 717
677 680 683 686 689 693 696 699 703 705 707 710 712 714 717 718 719 719 725 728 727 726 739 755 747 743 741 741 744 748 752 758 767 773 780 777 768 776 791 773 753 752 751 752 748 745 745 742 736 733 730 724 719 713
687 690 692 695 698 701 704 706 708 711 713 715 717 718 720 720 718 724 733 733 732 733 747 761 757 747 745 745 747 751 753 757 762 769 771 766 766 766 773 759 748 747 747 746 745 745 739 735 734 730 727 721 715 708
693 695 698 701 703 706 709 712 715 716 718 719 721 723 725 726 728 733 736 738 740 741 748 774 761 755 745 751 754 751 757 760 762 761 766 764 764 761 756 744 743 743 743 742 741 741 739 735 731 727 723 717 709 701
701 703 705 710 711 711 715 718 720 721 723 724 726 728 730 731 735 739 741 742 743 748 760 763 763 771 748 752 754 755 754 761 756 760 757 758 757 754 739 739 737 738 741 740 738 737 736 733 729 725 719 712 707 698
707 709 711 715 716 717 720 723 725 725 728 729 729 730 741 740 741 743 744 747 749 751 753 758 759 759 753 758 760 760 758 757 759 749 751 753 747 734 731 731 734 734 737 738 741 735 733 732 729 724 719 712 706 698
713 716 718 719 720 723 725 727 728 730 731 731 735 742 743 743 743 747 759 762 760 756 754 752 753 755 748 754 754 753 757 749 744 743 745 739 736 731 727 730 731 733 734 736 736 735 734 732 728 723 717 711 704 697
718 720 722 723 726 728 730 731 732 732 733 735 736 739 742 744 749 760 774 757 754 747 750 751 750 749 748 747 747 749 745 752 742 741 739 737 730 725 727 728 729 731 732 732 732 731 730 727 724 721 716 709 703 696
722 724 726 728 729 731 732 733 734 735 735 736 738 744 747 757 769 773 776 758 761 749 744 747 746 747 745 745 746 746 748 746 735 732 727 726 726 724 724 726 727 728 728 728 728 727 725 723 719 716 712 706 700 695
725 727 729 730 731 733 734 735 736 736 736 741 750 757 760 768 753 746 745 744 743 743 743 745 748 741 741 744 744 746 739 736 739 742 735 724 723 723 723 724 724 724 726 726 725 722 721 719 715 712 708 703 698 692
726 728 730 732 733 734 736 737 737 738 739 742 744 757 758 744 744 743 743 742 738 736 737 743 746 745 741 741 737 738 741 738 736 737 731 724 721 720 720 719 720 721 722 721 719 719 716 714 712 708 704 700 695 690
727 729 731 732 734 735 736 738 739 739 740 742 741 744 746 748 752 750 744 742 735 735 736 740 745 747 745 738 726 736 739 747 738 733 722 719 717 715 715 716 716 716 715 715 714 713 711 710 707 704 700 697 693 689
729 729 730 732 734 736 738 739 740 742 743 742 743 739 740 743 743 741 738 736 733 737 747 740 749 735 736 737 724 724 733 726 720 717 715 714 713 711 710 710 711 711 711 710 709 708 707 704 703 700 698 693 691 688
729 729 730 733 735 737 739 739 741 740 738 736 741 736 734 732 734 735 732 730 733 735 735 733 734 730 738 718 722 719 717 714 712 709 709 708 706 705 704 705 705 705 705 704 703 703 702 700 699 696 692 690 688 685
728 729 730 732 734 737 739 740 741 737 732 733 730 729 728 727 723 721 723 723 725 726 727 730 729 726 718 714 716 715 713 709 708 704 701 700 700 699 698 699 700 700 700 699 698 697 696 695 694 692 689 688 686 683
727 728 730 732 735 737 737 737 738 734 731 728 726 726 723 721 717 718 717 719 722 723 724 719 716 712 713 709 706 705 704 702 702 701 700 697 697 697 697 699 698 697 696 695 695 693 691 690 690 688 687 686 684 681
726 726 729 732 734 736 736 733 731 729 725 725 720 719 719 716 716 716 714 713 718 719 713 706 705 702 702 703 703 704 706 704 706 703 703 701 701 701 700 700 698 697 696 693 692 691 689 689 688 687 686 685 682 679
725 727 729 731 732 734 732 727 727 724 725 720 719 715 719 724 719 712 706 712 710 703 702 701 699 700 701 703 707 706 706 705 704 703 701 700 699 698 695 694 693 692 692 692 690 689 688 688 687 686 684 681 679 675
725 726 728 729 731 733 728 724 724 721 724 721 717 715 718 715 705 703 710 701 699 699 699 699 701 702 703 705 705 703 703 702 701 700 699 699 697 697 696 695 694 693 692 691 691 690 688 688 686 684 681 678 675 671
723 724 722 723 724 730 722 723 717 716 718 719 721 719 711 709 701 705 701 696 694 697 699 700 701 703 703 701 701 701 701 700 700 700 699 698 697 696 696 694 693 693 693 693 691 689 687 685 683 680 678 675 671 668
720 718 718 717 717 721 723 728 724 716 727 721 717 723 707 700 709 708 694 690 691 694 699 700 700 700 700 699 698 699 699 699 699 698 698 697 697 696 695 695 694 693 692 690 688 686 683 681 678 676 673 670 667 663
707 703 704 706 714 711 713 726 727 723 722 722 713 702 702 707 705 695 685 689 691 692 695 695 696 697 696 695 697 698 697 697 697 697 696 696 696 695 695 695 693 690 690 688 685 682 677 675 672 670 666 664 662 659
691 693 691 693 693 695 708 706 699 709 714 712 705 705 702 706 710 688 685 685 685 685 687 688 690 690 691 693 694 695 695 696 696 696 695 694 694 693 693 692 690 688 686 684 681 677 673 669 666 664 660 656 655 652
677 677 682 687 690 688 699 701 700 701 696 689 695 703 703 700 688 680 678 676 678 681 684 685 686 687 689 690 691 693 694 694 694 693 692 692 691 691 689 688 686 684 681 677 675 672 668 664 660 657 654 649 646 644
667 667 674 684 690 688 685 684 682 679 677 681 691 693 685 674 672 672 673 674 677 679 681 683 684 686 687 689 690 691 692 692 692 696 696 692 686 684 684 683 680 677 674 670 667 665 661 658 653 649 645 642 638 634
662 661 669 676 675 670 668 668 672 668 668 668 669 671 671 670 667 668 669 671 674 675 675 678 680 683 685 687 688 689 690 690 690 689 691 687 684 680 679 676 673 670 666 663 659 655 652 649 644 641 637 633 630 626
650 656 666 666 668 665 663 665 666 667 669 669 671 672 670 671 666 665 666 667 669 672 675 678 680 681 683 684 686 688 688 687 686 686 685 683 681 678 674 671 668 664 660 656 652 649 645 641 637 633 629 625 621 618
649 650 657 665 666 666 665 669 675 676 679 671 671 675 675 678 679 670 666 667 669 672 673 675 677 678 680 681 683 684 684 684 683 683 681 678 675 672 669 665 661 658 654 649 645 642 638 633 629 625 621 616 613 610
651 657 660 661 663 663 668 666 673 678 680 680 677 681 679 677 677 669 666 666 668 669 671 673 675 677 678 679 681 681 681 681 680 678 676 673 670 667 663 659 655 651 646 642 638 634 630 626 622 618 614 610 606 602